星链-5170 (STARLINK-5170 )

导读

STARLINK-5170是美国太空探索技术公司(SpaceX)于2022年10月20日发射的星链(Starlink)卫星,归属星链星座组网,为全球提供低延迟、高速率的宽带互联网服务,运行在近地轨道,是星链计划中推进全球互联网覆盖的一颗组网卫星,助力SpaceX完成大规模低轨卫星星座的构建。

Basic Information
目录编号:
54062
目录名称:
STARLINK-5170
国际标识:
2022-136M
轨道中心:
EARTH
卫星名称:
星链-5170
卫星全名:
星链-5170 (STARLINK-5170 )
卫星状态:
在轨 (已飞行1336 天)
发射日期:
2022-10-20 UTC
国别 :
美国 (US)
星等 :
--
Orbit Information
数据来源 国际轨道数据 AOE轨道数据
星历时间 2026-06-17T07:29:15+0800
9小时前
查看轨道信息
2026-06-15T07:00:00+0800
2天前
查看轨道信息
半长轴 6917.89km 6917.915km
偏心率 0.0001112 0.0001569
轨道倾角 53.161° 53.154°
近地点辐角 87.170° 17.310°
升交点赤经 258.272° 267.348°
平近点角 272.942° 162.811°
近地点 538.983km 538.692km
远地点 540.523km 540.864km
周期 95.438分钟 95.438分钟
每日圈数 15.088371 15.088289
Detailed Information
固有亮度:
5
最大亮度:
2.5
卫星平台:
Starlink v1.5
覆盖范围:
全球
运营商:
太空探索技术公司
运营商所在国:
美国
制造商(研发单位):
太空探索技术公司
制造商所在国:
美国
使用方式:
暂无
Satellite Introduction
星链(Starlink)计划是由太空探索技术公司(SpaceX)提出的一个巨型低轨卫星互联网星座项目,计划在2019年至2024年间在太空搭建由约1.2万颗卫星组成的“星链”网络,其中1584颗将部署在地球上空550千米处的近地轨道,并从2020年开始工作。该卫星仍在工作。
2D Orbit Map
3D Orbit Map
Orbit Altitude Analysis Chart
Orbit Inclination Analysis Chart
Orbit Comprehensive Analysis Chart
View Comprehensive Chart